Voltar ao catálogo

INTELSAT 20

AtivoComunicaçõesGEO
NORAD 38740·PAYLOAD· XX

Lançado Aug 2, 2012 de Guiana Space Centre

Loading…

TLE

AtualizadoSource: CelesTrak SupGP

Época: Sep 14, 2026, 00:00 UTC

1 38740C 12043A   26257.00000000  .00000066  00000+0  00000+0 0  2571
2 38740   0.0074 166.6308 0001681 351.5799 263.2686  1.00272576    14

Acompanhe INTELSAT 20 em tempo real com AllMySat

Download on the App Store